KK4F Weather Reports


time (UTC)temp
C
wind
direction
speed
KPH
gust
KPH
rain 1hr
cm
rain 24hr
cm
rain mn
cm
humidity
%
barometer
mb
20260503185032 20 293 1.6 8.0 0.00 0.18 0.03 48 1019.3
20260503184531 20 301 0.0 6.4 0.00 0.18 0.03 49 1019.3
20260503184032 20 89 0.0 14.5 0.00 0.18 0.03 45 1019.3
20260503183532 21 99 4.8 14.5 0.00 0.18 0.03 43 1019.4
20260503183029 21 261 1.6 16.1 0.00 0.18 0.03 46 1019.4
20260503182530 20 219 1.6 16.1 0.00 0.18 0.03 44 1019.4
20260503182030 20 274 1.6 11.3 0.00 0.18 0.03 48 1019.5
20260503181530 20 291 0.0 11.3 0.00 0.18 0.03 44 1019.6
20260503181031 20 244 1.6 12.9 0.00 0.18 0.03 46 1019.7
20260503180530 20 298 1.6 19.3 0.00 0.18 0.03 46 1019.7
20260503180042 21 194 4.8 19.3 0.00 0.18 0.03 44 1019.6
20260503175527 21 236 1.6 14.5 0.00 0.23 0.03 46 1019.7
20260503175026 20 323 1.6 9.7 0.00 0.23 0.03 47 1019.7
20260503174524 19 227 0.0 6.4 0.00 0.23 0.03 49 1019.7
20260503174028 19 132 0.0 0.0 0.00 0.23 0.03 52 1019.7
20260503173526 19 294 0.0 0.0 0.00 0.23 0.03 48 1019.7
20260503173024 19 81 0.0 4.8 0.00 0.23 0.03 53 1019.8
20260503172524 19 72 0.0 11.3 0.00 0.23 0.03 48 1019.8
20260503172024 19 234 0.0 11.3 0.00 0.23 0.03 52 1019.9
20260503171526 18 173 0.0 8.0 0.00 0.23 0.03 50 1019.9
20260503171122 18 192 1.6 8.0 0.00 0.23 0.03 47 1020.0
20260503170521 18 288 3.2 9.7 0.00 0.23 0.03 53 1020.1
20260503151005 16 333 1.6 6.4 0.00 0.51 0.03 56 1021.2
20260503150504 16 175 0.0 6.4 0.00 0.51 0.03 58 1021.1
20260503131038 11 67 0.0 4.8 0.00 0.97 0.03 84 1020.5
20260503130539 11 69 0.0 4.8 0.00 0.97 0.03 87 1020.6
20260503110523 6 207 0.0 0.0 0.00 1.17 0.03 98 1019.3
20260503090506 7 205 0.0 0.0 0.03 1.52 0.03 97 1017.7
20260503081559 7 204 0.0 0.0 0.00 1.63 0.00 98 1017.4
20260503081102 7 204 0.0 0.0 0.00 1.63 0.00 98 1017.4
20260503080600 7 204 0.0 0.0 0.00 1.63 0.00 97 1017.4
20260503072551 8 204 0.0 0.0 0.00 1.75 0.00 97 1016.9
20260503072050 8 204 0.0 0.0 0.00 1.75 0.00 97 1016.9
20260503071553 8 204 0.0 0.0 0.00 1.75 0.00 97 1016.9
20260503071048 8 204 0.0 0.0 0.00 1.75 0.00 98 1016.8
20260503070548 8 204 0.0 0.0 0.00 1.75 0.00 98 1016.8
20260503060106 10 205 0.0 0.0 0.00 1.75 0.00 98 1016.4
20260503055037 10 205 0.0 0.0 0.00 1.75 0.00 98 1016.3
20260503054539 10 205 0.0 0.0 0.00 1.75 0.00 98 1016.5
20260503054038 10 205 0.0 0.0 0.00 1.75 0.00 98 1016.4
20260503053536 10 205 0.0 0.0 0.00 1.75 0.00 98 1016.5
20260503053036 10 205 0.0 0.0 0.00 1.75 0.00 98 1016.5
20260503052536 10 205 0.0 0.0 0.00 1.75 0.00 98 1016.4
20260503052035 10 205 0.0 0.0 0.00 1.75 0.00 98 1016.4
20260503051536 10 205 0.0 0.0 0.00 1.75 0.00 98 1016.5
20260503051038 10 205 0.0 0.0 0.00 1.75 0.00 98 1016.5
20260503050535 10 205 0.0 0.0 0.00 1.75 0.00 98 1016.4
20260503050036 10 205 0.0 0.0 0.00 1.75 0.00 98 1016.3
20260503045534 10 227 0.0 0.0 0.00 1.75 0.00 98 1016.3
20260503045034 10 224 0.0 0.0 0.00 1.75 0.00 98 1016.4
20260503044535 10 221 0.0 0.0 0.00 1.75 0.00 98 1016.4
20260503044036 10 219 0.0 0.0 0.00 1.75 0.00 98 1016.4
20260503043533 10 219 0.0 0.0 0.00 1.75 0.00 98 1016.4
20260503043041 10 219 0.0 0.0 0.00 1.75 0.00 98 1016.3
20260503042535 10 219 0.0 0.0 0.00 1.75 0.00 98 1016.3
20260503042032 10 219 0.0 0.0 0.00 1.75 0.00 97 1016.3
20260503041531 10 218 0.0 0.0 0.00 1.75 0.00 97 1016.3
20260503041030 10 217 0.0 0.0 0.00 1.75 0.00 97 1016.3
20260503040629 10 217 0.0 0.0 0.00 1.75 0.00 97 1016.3
20260503040028 10 217 0.0 0.0 0.00 1.75 0.00 98 1016.3
20260503035530 10 217 0.0 0.0 0.00 1.75 1.75 98 1016.1
20260503035027 10 216 0.0 0.0 0.00 1.75 1.75 98 1016.2
20260503034527 10 217 0.0 0.0 0.00 1.75 1.75 97 1016.2
20260503034026 10 217 0.0 0.0 0.00 1.75 1.75 97 1016.0
20260503033530 10 217 0.0 0.0 0.00 1.75 1.75 97 1015.9
20260503033033 10 217 0.0 0.0 0.00 1.75 1.75 98 1016.0
20260503032525 10 217 0.0 0.0 0.00 1.75 1.75 98 1016.0
20260503032027 10 216 0.0 0.0 0.00 1.75 1.75 98 1015.9
20260503031525 10 215 0.0 0.0 0.00 1.75 1.75 98 1015.8
20260503031025 10 214 0.0 0.0 0.00 1.75 1.75 98 1015.8
20260503030524 10 213 0.0 0.0 0.00 1.75 1.75 98 1015.7
20260503030021 10 212 0.0 0.0 0.00 1.75 1.75 97 1015.5
20260503025520 10 212 0.0 0.0 0.00 1.75 1.75 97 1015.3
20260503025020 10 212 0.0 0.0 0.00 1.75 1.75 97 1015.3
20260503024525 10 212 0.0 0.0 0.00 1.75 1.75 97 1015.1
20260503024019 10 211 0.0 0.0 0.00 1.75 1.75 97 1015.0
20260503023518 10 212 0.0 0.0 0.00 1.75 1.75 97 1015.1
20260503023018 10 212 0.0 0.0 0.00 1.75 1.75 97 1015.0
20260503022518 10 212 0.0 0.0 0.00 1.75 1.75 97 1015.0
20260503022018 10 211 0.0 0.0 0.00 1.75 1.75 97 1015.0
20260503021537 10 211 0.0 0.0 0.00 1.75 1.75 97 1014.9
20260503021017 10 211 0.0 0.0 0.00 1.75 1.75 97 1014.8
20260503020516 10 211 0.0 0.0 0.00 1.75 1.75 97 1014.7
20260503020016 10 210 0.0 0.0 0.00 1.75 1.75 96 1014.7
20260503015517 10 209 0.0 0.0 0.00 1.75 1.75 97 1014.7
20260503015014 10 209 0.0 0.0 0.00 1.75 1.75 96 1014.7
20260503014513 10 209 0.0 0.0 0.00 1.75 1.75 96 1014.5
20260503014013 10 208 0.0 0.0 0.00 1.75 1.75 96 1014.4
20260503013513 10 208 0.0 0.0 0.00 1.75 1.75 96 1014.3
20260503013012 10 207 0.0 0.0 0.00 1.75 1.75 96 1014.3
20260503012511 10 207 0.0 0.0 0.00 1.75 1.75 96 1014.2
20260503012010 10 206 0.0 0.0 0.00 1.75 1.75 95 1014.3
20260503011510 10 205 0.0 0.0 0.00 1.75 1.75 96 1014.3
20260503011010 11 205 0.0 0.0 0.00 1.75 1.75 96 1014.2
20260503010508 11 205 0.0 0.0 0.00 1.75 1.75 96 1014.2
20260503010007 11 205 0.0 0.0 0.00 1.75 1.75 95 1014.1
20260503005506 11 205 0.0 0.0 0.00 1.75 1.75 96 1014.0
20260503005008 11 204 0.0 0.0 0.00 1.75 1.75 96 1013.9
20260503004504 11 204 0.0 0.0 0.00 1.75 1.75 95 1013.9
20260503004004 11 204 0.0 0.0 0.00 1.75 1.75 95 1013.7
20260503003503 11 204 0.0 0.0 0.00 1.75 1.75 95 1013.6
20260503003010 11 204 0.0 0.0 0.00 1.75 1.75 95 1013.5
20260503002503 11 204 0.0 0.0 0.00 1.75 1.75 94 1013.5
20260503002004 12 203 0.0 0.0 0.00 1.75 1.75 94 1013.2
20260503001504 12 203 0.0 0.0 0.00 1.75 1.75 94 1013.2
20260503001005 12 203 0.0 0.0 0.00 1.75 1.75 94 1013.1
20260503000503 12 203 0.0 0.0 0.00 1.75 1.75 93 1013.1
20260503000005 12 203 0.0 0.0 0.00 1.75 1.75 93 1013.1
20260502235502 12 203 0.0 0.0 0.00 1.75 1.75 94 1013.2
20260502235005 12 203 0.0 0.0 0.00 1.75 1.75 94 1013.0
20260502234502 12 203 0.0 1.6 0.00 1.75 1.75 93 1012.9
20260502234002 12 166 0.0 0.0 0.00 1.75 1.75 93 1012.9
20260502233502 12 166 0.0 0.0 0.00 1.75 1.75 93 1013.0
20260502233003 12 166 0.0 0.0 0.00 1.75 1.75 92 1013.0
20260502232501 12 168 0.0 0.0 0.00 1.75 1.75 92 1012.9
20260502232002 12 167 0.0 1.6 0.00 1.75 1.75 92 1012.8
20260502231502 12 167 0.0 1.6 0.00 1.75 1.75 91 1012.8
20260502231002 12 159 0.0 1.6 0.00 1.75 1.75 91 1012.6
20260502230502 12 165 0.0 1.6 0.00 1.75 1.75 91 1012.5
20260502230003 12 166 0.0 1.6 0.00 1.75 1.75 91 1012.5
20260502225604 12 166 0.0 1.6 0.00 1.75 1.75 91 1012.5
20260502225100 12 167 0.0 1.6 0.00 1.75 1.75 91 1012.6
20260502224600 12 167 0.0 0.0 0.00 1.75 1.75 91 1012.7
20260502224100 12 172 0.0 3.2 0.03 1.75 1.75 91 1012.7
20260502223601 12 171 0.0 3.2 0.03 1.75 1.75 91 1012.7
20260502223101 12 191 0.0 3.2 0.03 1.75 1.75 91 1012.9
20260502222559 12 191 0.0 4.8 0.03 1.75 1.75 92 1012.8
20260502222102 12 108 0.0 4.8 0.03 1.75 1.75 91 1012.7
20260502221659 12 321 0.0 0.0 0.03 1.75 1.75 92 1012.7
20260502221102 12 117 0.0 0.0 0.03 1.75 1.75 92 1012.5
20260502220559 12 315 0.0 0.0 0.03 1.75 1.75 92 1012.5
20260502220059 12 313 0.0 0.0 0.03 1.75 1.75 92 1012.4
20260502215558 12 76 0.0 1.6 0.03 1.75 1.75 92 1012.5
20260502215057 12 74 0.0 1.6 0.03 1.75 1.75 92 1012.5
20260502214557 12 107 0.0 4.8 0.00 1.73 1.73 93 1012.5
20260502214056 12 107 0.0 4.8 0.00 1.73 1.73 93 1012.4
20260502213557 12 180 0.0 3.2 0.00 1.73 1.73 94 1012.4
20260502213107 12 282 0.0 4.8 0.03 1.73 1.73 94 1012.2
20260502212601 12 281 0.0 4.8 0.03 1.73 1.73 94 1012.3
20260502212056 12 314 0.0 1.6 0.03 1.73 1.73 95 1012.3
20260502211556 12 314 0.0 3.2 0.03 1.73 1.73 94 1012.3
20260502211057 12 11 0.0 4.8 0.03 1.73 1.73 95 1012.2
20260502210555 12 51 0.0 6.4 0.03 1.73 1.73 94 1012.1
20260502210056 12 88 0.0 6.4 0.03 1.73 1.73 94 1012.0
20260502205555 12 92 0.0 4.8 0.03 1.73 1.73 95 1012.0
20260502205054 12 78 0.0 6.4 0.03 1.73 1.73 95 1012.1
20260502204600 12 47 0.0 9.7 0.03 1.73 1.73 95 1012.3
20260502204054 12 321 0.0 12.9 0.05 1.73 1.73 94 1012.4
20260502203556 12 27 1.6 12.9 0.05 1.73 1.73 94 1012.4
20260502203059 12 70 0.0 11.3 0.03 1.70 1.70 94 1012.5
20260502202555 12 50 0.0 0.0 0.03 1.70 1.70 95 1012.5
20260502202055 12 101 0.0 0.0 0.03 1.70 1.70 95 1012.6
20260502201556 12 98 0.0 0.0 0.03 1.70 1.70 94 1012.7
20260502201057 12 129 0.0 1.6 0.03 1.70 1.70 95 1012.6
20260502200553 12 98 0.0 3.2 0.03 1.70 1.70 95 1012.6
20260502200119 12 107 0.0 3.2 0.05 1.70 1.70 94 1012.6
20260502195553 12 109 0.0 3.2 0.05 1.70 1.70 94 1012.6
20260502195053 12 53 0.0 4.8 0.05 1.70 1.70 94 1012.5
20260502194606 12 52 0.0 4.8 0.05 1.70 1.70 95 1012.6
20260502194053 12 92 0.0 4.8 0.03 1.68 1.68 94 1012.6
20260502193554 12 77 0.0 4.8 0.03 1.68 1.68 95 1012.7
20260502193056 12 312 0.0 3.2 0.03 1.68 1.68 95 1012.7
20260502192552 11 312 0.0 4.8 0.05 1.68 1.68 94 1012.7
20260502192055 11 9 0.0 6.4 0.05 1.68 1.68 94 1012.7
20260502191559 11 117 0.0 4.8 0.05 1.68 1.68 94 1012.5
20260502191051 12 55 0.0 4.8 0.05 1.68 1.68 94 1012.4
20260502190552 12 94 0.0 0.0 0.05 1.68 1.68 95 1012.3
20260502190052 12 38 0.0 6.4 0.03 1.65 1.65 96 1012.4
20260502185555 12 32 0.0 6.4 0.05 1.65 1.65 96 1012.2